| time (UTC) | temp F | wind direction | speed MPH | gust MPH | rain 1hr in | rain 24hr in | rain mn in | humidity % | barometer mb |
| 20260904010939 | 85 | 294 | 0.0 | 0.0 | 0.00 | 0.00 | 0.00 | ||
| 20260904010426 | 85 | 292 | 0.0 | 0.0 | 0.00 | 0.00 | 0.00 | ||
| 20260904004848 | 88 | 293 | 0.0 | 0.0 | 0.00 | 0.00 | 0.00 | ||
| 20260904003822 | 88 | 293 | 0.0 | 0.0 | 0.00 | 0.00 | 0.00 | ||
| 20260904002756 | 90 | 295 | 0.0 | 0.0 | 0.00 | 0.00 | 0.00 | ||
| 20260904002244 | 90 | 296 | 0.0 | 0.0 | 0.00 | 0.00 | 0.00 | ||
| 20260904001219 | 91 | 292 | 0.0 | 0.0 | 0.00 | 0.00 | 0.00 | ||
| 20260904000705 | 91 | 296 | 0.0 | 0.0 | 0.00 | 0.00 | 0.00 | ||
| 20260903235639 | 91 | 294 | 0.0 | 0.0 | 0.00 | 0.00 | 0.00 | ||
| 20260903234101 | 91 | 298 | 0.0 | 0.0 | 0.00 | 0.00 | 0.00 | ||
| 20260903233548 | 91 | 294 | 0.0 | 0.0 | 0.00 | 0.00 | 0.00 | ||
| 20260903233035 | 92 | 293 | 0.0 | 0.0 | 0.00 | 0.00 | 0.00 | ||
| 20260903232522 | 93 | 294 | 0.0 | 0.0 | 0.00 | 0.00 | 0.00 | ||
| 20260903232010 | 93 | 295 | 0.0 | 0.0 | 0.00 | 0.00 | 0.00 | ||
| 20260903231457 | 92 | 296 | 0.0 | 0.0 | 0.00 | 0.00 | 0.00 | ||
| 20260903230944 | 92 | 297 | 0.0 | 0.0 | 0.00 | 0.00 | 0.00 | ||
| 20260903230431 | 93 | 292 | 0.0 | 0.0 | 0.00 | 0.00 | 0.00 | ||
| 20260903225405 | 92 | 300 | 0.0 | 0.0 | 0.00 | 0.00 | 0.00 | ||
| 20260903224852 | 92 | 297 | 0.0 | 0.0 | 0.00 | 0.00 | 0.00 | ||
| 20260903222801 | 91 | 296 | 0.0 | 0.0 | 0.00 | 0.00 | 0.00 | ||
| 20260903222248 | 91 | 292 | 0.0 | 0.0 | 0.00 | 0.00 | 0.00 | ||
| 20260903221223 | 91 | 296 | 0.0 | 0.0 | 0.00 | 0.00 | 0.00 | ||
| 20260903220710 | 91 | 292 | 0.0 | 0.0 | 0.00 | 0.00 | 0.00 | ||
| 20260903220157 | 91 | 294 | 0.0 | 0.0 | 0.00 | 0.00 | 0.00 | ||
| 20260903215131 | 91 | 303 | 0.0 | 0.0 | 0.00 | 0.00 | 0.00 | ||
| 20260903214618 | 91 | 300 | 0.0 | 0.0 | 0.00 | 0.00 | 0.00 | ||
| 20260903214105 | 91 | 299 | 0.0 | 0.0 | 0.00 | 0.00 | 0.00 | ||
| 20260903213553 | 91 | 299 | 0.0 | 0.0 | 0.00 | 0.00 | 0.00 | ||
| 20260903213040 | 91 | 299 | 0.0 | 0.0 | 0.00 | 0.00 | 0.00 | ||
| 20260903212527 | 91 | 294 | 0.0 | 0.0 | 0.00 | 0.00 | 0.00 | ||
| 20260903212014 | 92 | 296 | 0.0 | 0.0 | 0.00 | 0.00 | 0.00 | ||
| 20260903211501 | 90 | 296 | 0.0 | 0.0 | 0.00 | 0.00 | 0.00 | ||
| 20260903210436 | 90 | 295 | 0.0 | 0.0 | 0.00 | 0.00 | 0.00 | ||
| 20260903205923 | 90 | 305 | 0.0 | 0.0 | 0.00 | 0.00 | 0.00 | ||
| 20260903205410 | 90 | 294 | 0.0 | 0.0 | 0.00 | 0.00 | 0.00 | ||
| 20260903204857 | 90 | 297 | 0.0 | 0.0 | 0.00 | 0.00 | 0.00 | ||
| 20260903204344 | 91 | 307 | 0.0 | 0.0 | 0.00 | 0.00 | 0.00 | ||
| 20260903203831 | 90 | 297 | 0.0 | 0.0 | 0.00 | 0.00 | 0.00 | ||
| 20260903203318 | 90 | 295 | 0.0 | 0.0 | 0.00 | 0.00 | 0.00 | ||
| 20260903202806 | 90 | 292 | 0.0 | 0.0 | 0.00 | 0.00 | 0.00 | ||
| 20260903202253 | 89 | 295 | 0.0 | 0.0 | 0.00 | 0.00 | 0.00 | ||
| 20260903201740 | 88 | 305 | 0.0 | 0.0 | 0.00 | 0.00 | 0.00 | ||
| 20260903201228 | 88 | 292 | 0.0 | 0.0 | 0.00 | 0.00 | 0.00 | ||
| 20260903200714 | 88 | 321 | 0.0 | 0.0 | 0.00 | 0.00 | 0.00 | ||
| 20260903200202 | 87 | 292 | 0.0 | 0.0 | 0.00 | 0.00 | 0.00 | ||
| 20260903195649 | 88 | 304 | 0.0 | 0.0 | 0.00 | 0.00 | 0.00 | ||
| 20260903195136 | 87 | 292 | 0.0 | 0.0 | 0.00 | 0.00 | 0.00 | ||
| 20260903194623 | 86 | 250 | 0.0 | 0.0 | 0.00 | 0.00 | 0.00 | ||
| 20260903193044 | 86 | 300 | 0.0 | 0.0 | 0.00 | 0.00 | 0.00 | ||
| 20260903192532 | 86 | 292 | 0.0 | 0.0 | 0.00 | 0.00 | 0.00 | ||
| 20260903192019 | 86 | 295 | 0.0 | 0.0 | 0.00 | 0.00 | 0.00 | ||
| 20260903191506 | 86 | 296 | 0.0 | 0.0 | 0.00 | 0.00 | 0.00 | ||
| 20260903190953 | 86 | 292 | 0.0 | 0.0 | 0.00 | 0.00 | 0.00 | ||
| 20260903190440 | 86 | 292 | 0.0 | 0.0 | 0.00 | 0.00 | 0.00 | ||
| 20260903185928 | 86 | 294 | 0.0 | 0.0 | 0.00 | 0.00 | 0.00 | ||
| 20260903185416 | 86 | 295 | 0.0 | 0.0 | 0.00 | 0.00 | 0.00 | ||
| 20260903184903 | 85 | 298 | 0.0 | 0.0 | 0.00 | 0.00 | 0.00 | ||
| 20260903184350 | 86 | 296 | 0.0 | 0.0 | 0.00 | 0.00 | 0.00 | ||
| 20260903183837 | 86 | 294 | 0.0 | 0.0 | 0.00 | 0.00 | 0.00 | ||
| 20260903183324 | 85 | 306 | 0.0 | 0.0 | 0.00 | 0.00 | 0.00 | ||
| 20260903182258 | 84 | 304 | 0.0 | 0.0 | 0.00 | 0.00 | 0.00 | ||
| 20260903181233 | 84 | 305 | 0.0 | 0.0 | 0.00 | 0.00 | 0.00 | ||
| 20260903180207 | 85 | 298 | 0.0 | 0.0 | 0.00 | 0.00 | 0.00 | ||
| 20260903175655 | 85 | 296 | 0.0 | 0.0 | 0.00 | 0.00 | 0.00 | ||
| 20260903175142 | 85 | 303 | 0.0 | 0.0 | 0.00 | 0.00 | 0.00 | ||
| 20260903174628 | 84 | 315 | 0.0 | 0.0 | 0.00 | 0.00 | 0.00 | ||
| 20260903174115 | 84 | 311 | 0.0 | 0.0 | 0.00 | 0.00 | 0.00 | ||
| 20260903173603 | 84 | 315 | 0.0 | 0.0 | 0.00 | 0.00 | 0.00 | ||
| 20260903173049 | 84 | 318 | 0.0 | 0.0 | 0.00 | 0.00 | 0.00 | ||
| 20260903171511 | 85 | 357 | 0.0 | 0.0 | 0.00 | 0.00 | 0.00 | ||
| 20260903170959 | 85 | 316 | 0.0 | 0.0 | 0.00 | 0.00 | 0.00 | ||
| 20260903170446 | 84 | 75 | 0.0 | 0.0 | 0.00 | 0.00 | 0.00 | ||
| 20260903165420 | 84 | 298 | 0.0 | 0.0 | 0.00 | 0.00 | 0.00 | ||
| 20260903164907 | 84 | 311 | 0.0 | 0.0 | 0.00 | 0.00 | 0.00 | ||
| 20260903164355 | 83 | 135 | 0.0 | 0.0 | 0.00 | 0.00 | 0.00 | ||
| 20260903163842 | 81 | 337 | 0.0 | 0.0 | 0.00 | 0.00 | 0.00 | ||
| 20260903163329 | 79 | 320 | 0.0 | 0.0 | 0.00 | 0.00 | 0.00 | ||
| 20260903162306 | 78 | 323 | 0.0 | 0.0 | 0.00 | 0.00 | 0.00 | ||
| 20260903161752 | 76 | 315 | 0.0 | 0.0 | 0.00 | 0.00 | 0.00 | ||
| 20260903161237 | 76 | 294 | 0.0 | 0.0 | 0.00 | 0.00 | 0.00 | ||
| 20260903160724 | 76 | 315 | 0.0 | 0.0 | 0.00 | 0.00 | 0.00 | ||
| 20260903160211 | 76 | 135 | 0.0 | 0.0 | 0.00 | 0.00 | 0.00 | ||
| 20260903155658 | 77 | 154 | 0.0 | 0.0 | 0.00 | 0.00 | 0.00 | ||
| 20260903155146 | 77 | 337 | 0.0 | 0.0 | 0.00 | 0.00 | 0.00 | ||
| 20260903154633 | 76 | 337 | 0.0 | 0.0 | 0.00 | 0.00 | 0.00 | ||
| 20260903154120 | 75 | 337 | 0.0 | 0.0 | 0.00 | 0.00 | 0.00 | ||
| 20260903153607 | 75 | 337 | 0.0 | 0.0 | 0.00 | 0.00 | 0.00 | ||
| 20260903152028 | 69 | 110 | 0.0 | 0.0 | 0.00 | 0.00 | 0.00 | ||
| 20260903151003 | 65 | 337 | 0.0 | 0.0 | 0.00 | 0.00 | 0.00 | ||
| 20260903145937 | 58 | 321 | 0.0 | 0.0 | 0.00 | 0.00 | 0.00 | ||
| 20260903144359 | 56 | 305 | 0.0 | 0.0 | 0.00 | 0.00 | 0.00 | ||
| 20260903143847 | 55 | 302 | 0.0 | 0.0 | 0.00 | 0.00 | 0.00 | ||
| 20260903142820 | 52 | 337 | 0.0 | 0.0 | 0.00 | 0.00 | 0.00 | ||
| 20260903142307 | 51 | 301 | 0.0 | 0.0 | 0.00 | 0.00 | 0.00 | ||
| 20260903141754 | 51 | 294 | 0.0 | 0.0 | 0.00 | 0.00 | 0.00 | ||
| 20260903141243 | 51 | 312 | 0.0 | 0.0 | 0.00 | 0.00 | 0.00 | ||
| 20260903140729 | 50 | 135 | 0.0 | 0.0 | 0.00 | 0.00 | 0.00 | ||
| 20260903140217 | 49 | 115 | 0.0 | 0.0 | 0.00 | 0.00 | 0.00 | ||
| 20260903135704 | 49 | 115 | 0.0 | 0.0 | 0.00 | 0.00 | 0.00 | ||
| 20260903134638 | 48 | 337 | 0.0 | 0.0 | 0.00 | 0.00 | 0.00 | ||
| 20260903134125 | 48 | 337 | 0.0 | 0.0 | 0.00 | 0.00 | 0.00 | ||
| 20260903133612 | 48 | 225 | 0.0 | 0.0 | 0.00 | 0.00 | 0.00 | ||
| 20260903133059 | 47 | 120 | 0.0 | 0.0 | 0.00 | 0.00 | 0.00 | ||
| 20260903132547 | 47 | 337 | 0.0 | 0.0 | 0.00 | 0.00 | 0.00 | ||
| 20260903132034 | 47 | 315 | 0.0 | 0.0 | 0.00 | 0.00 | 0.00 | ||
| 20260903130457 | 47 | 337 | 0.0 | 0.0 | 0.00 | 0.00 | 0.00 | ||
| 20260903125943 | 47 | 47 | 0.0 | 0.0 | 0.00 | 0.00 | 0.00 | ||
| 20260903125430 | 47 | 337 | 0.0 | 0.0 | 0.00 | 0.00 | 0.00 | ||
| 20260903124918 | 47 | 143 | 0.0 | 0.0 | 0.00 | 0.00 | 0.00 | ||
| 20260903124404 | 47 | 100 | 0.0 | 0.0 | 0.00 | 0.00 | 0.00 | ||
| 20260903123851 | 47 | 337 | 0.0 | 0.0 | 0.00 | 0.00 | 0.00 | ||
| 20260903122825 | 47 | 22 | 0.0 | 0.0 | 0.00 | 0.00 | 0.00 | ||
| 20260903121800 | 47 | 337 | 0.0 | 0.0 | 0.00 | 0.00 | 0.00 | ||
| 20260903121247 | 47 | 337 | 0.0 | 0.0 | 0.00 | 0.00 | 0.00 | ||
| 20260903115156 | 47 | 337 | 0.0 | 0.0 | 0.00 | 0.00 | 0.00 | ||
| 20260903114130 | 48 | 0 | 0.0 | 0.0 | 0.00 | 0.00 | 0.00 | ||
| 20260903113617 | 48 | 0 | 0.0 | 0.0 | 0.00 | 0.00 | 0.00 | ||
| 20260903113107 | 48 | 331 | 0.0 | 0.0 | 0.00 | 0.00 | 0.00 | ||
| 20260903112038 | 48 | 292 | 0.0 | 0.0 | 0.00 | 0.00 | 0.00 | ||
| 20260903111526 | 49 | 337 | 0.0 | 0.0 | 0.00 | 0.00 | 0.00 | ||
| 20260903111012 | 49 | 0 | 0.0 | 0.0 | 0.00 | 0.00 | 0.00 | ||
| 20260903110459 | 48 | 337 | 0.0 | 0.0 | 0.00 | 0.00 | 0.00 | ||
| 20260903105947 | 48 | 90 | 0.0 | 0.0 | 0.00 | 0.00 | 0.00 | ||
| 20260903105434 | 48 | 337 | 0.0 | 0.0 | 0.00 | 0.00 | 0.00 | ||
| 20260903104922 | 48 | 337 | 0.0 | 0.0 | 0.00 | 0.00 | 0.00 | ||
| 20260903104408 | 48 | 337 | 0.0 | 0.0 | 0.00 | 0.00 | 0.00 | ||
| 20260903103856 | 48 | 337 | 0.0 | 0.0 | 0.00 | 0.00 | 0.00 | ||
| 20260903103342 | 49 | 337 | 0.0 | 0.0 | 0.00 | 0.00 | 0.00 | ||
| 20260903102831 | 49 | 0 | 0.0 | 0.0 | 0.00 | 0.00 | 0.00 | ||
| 20260903101806 | 49 | 337 | 0.0 | 0.0 | 0.00 | 0.00 | 0.00 | ||
| 20260903100738 | 50 | 202 | 0.0 | 0.0 | 0.00 | 0.00 | 0.00 | ||
| 20260903095713 | 50 | 337 | 0.0 | 0.0 | 0.00 | 0.00 | 0.00 | ||
| 20260903095200 | 49 | 281 | 0.0 | 0.0 | 0.00 | 0.00 | 0.00 | ||
| 20260903094647 | 49 | 337 | 0.0 | 0.0 | 0.00 | 0.00 | 0.00 | ||
| 20260903094135 | 50 | 337 | 0.0 | 0.0 | 0.00 | 0.00 | 0.00 | ||
| 20260903093622 | 50 | 186 | 0.0 | 0.0 | 0.00 | 0.00 | 0.00 | ||
| 20260903093111 | 50 | 76 | 0.0 | 0.0 | 0.00 | 0.00 | 0.00 | ||
| 20260903092042 | 50 | 11 | 0.0 | 0.0 | 0.00 | 0.00 | 0.00 | ||
| 20260903091017 | 51 | 337 | 0.0 | 0.0 | 0.00 | 0.00 | 0.00 | ||
| 20260903090504 | 51 | 133 | 0.0 | 0.0 | 0.00 | 0.00 | 0.00 | ||
| 20260903085952 | 51 | 337 | 0.0 | 0.0 | 0.00 | 0.00 | 0.00 | ||
| 20260903085439 | 51 | 0 | 0.0 | 0.0 | 0.00 | 0.00 | 0.00 | ||
| 20260903084414 | 52 | 337 | 0.0 | 0.0 | 0.00 | 0.00 | 0.00 | ||
| 20260903083901 | 53 | 337 | 0.0 | 0.0 | 0.00 | 0.00 | 0.00 | ||
| 20260903083348 | 53 | 170 | 0.0 | 0.0 | 0.00 | 0.00 | 0.00 | ||
| 20260903082834 | 53 | 135 | 0.0 | 0.0 | 0.00 | 0.00 | 0.00 | ||
| 20260903082323 | 53 | 337 | 0.0 | 0.0 | 0.00 | 0.00 | 0.00 | ||
| 20260903081256 | 53 | 104 | 0.0 | 0.0 | 0.00 | 0.00 | 0.00 | ||
| 20260903080744 | 53 | 337 | 0.0 | 0.0 | 0.00 | 0.00 | 0.00 | ||
| 20260903080231 | 53 | 337 | 0.0 | 0.0 | 0.00 | 0.00 | 0.00 | ||
| 20260903075205 | 53 | 337 | 0.0 | 0.0 | 0.00 | 0.00 | 0.00 | ||
| 20260903074652 | 53 | 39 | 0.0 | 0.0 | 0.00 | 0.00 | 0.00 | ||
| 20260903074139 | 54 | 337 | 0.0 | 0.0 | 0.00 | 0.00 | 0.00 | ||
| 20260903073627 | 54 | 108 | 0.0 | 0.0 | 0.00 | 0.00 | 0.00 | ||
| 20260903072600 | 54 | 129 | 0.0 | 0.0 | 0.00 | 0.00 | 0.00 | ||
| 20260903072047 | 54 | 337 | 0.0 | 0.0 | 0.00 | 0.00 | 0.00 | ||
| 20260903071534 | 53 | 337 | 0.0 | 0.0 | 0.00 | 0.00 | 0.00 | ||
| 20260903071021 | 54 | 337 | 0.0 | 0.0 | 0.00 | 0.00 | 0.00 | ||
| 20260903070509 | 54 | 337 | 0.0 | 0.0 | 0.00 | 0.00 | 0.00 | ||
| 20260903065956 | 55 | 45 | 0.0 | 0.0 | 0.00 | 0.00 | 0.00 | ||
| 20260903065444 | 55 | 114 | 0.0 | 0.0 | 0.00 | 0.00 | 0.00 | ||
| 20260903064931 | 55 | 337 | 0.0 | 0.0 | 0.00 | 0.00 | 0.00 | ||
| 20260903064418 | 55 | 202 | 0.0 | 0.0 | 0.00 | 0.00 | 0.00 | ||
| 20260903063905 | 56 | 337 | 0.0 | 0.0 | 0.00 | 0.00 | 0.00 | ||
| 20260903063352 | 56 | 113 | 0.0 | 0.0 | 0.00 | 0.00 | 0.00 | ||
| 20260903062839 | 56 | 337 | 0.0 | 0.0 | 0.00 | 0.00 | 0.00 | ||
| 20260903061814 | 56 | 337 | 0.0 | 0.0 | 0.00 | 0.00 | 0.00 | ||
| 20260903061303 | 56 | 90 | 0.0 | 0.0 | 0.00 | 0.00 | 0.00 | ||
| 20260903060747 | 56 | 337 | 0.0 | 0.0 | 0.00 | 0.00 | 0.00 | ||
| 20260903060236 | 57 | 113 | 0.0 | 0.0 | 0.00 | 0.00 | 0.00 | ||
| 20260903055723 | 57 | 331 | 0.0 | 0.0 | 0.00 | 0.00 | 0.00 | ||
| 20260903055211 | 57 | 112 | 0.0 | 0.0 | 0.00 | 0.00 | 0.00 | ||
| 20260903054657 | 57 | 45 | 0.0 | 0.0 | 0.00 | 0.00 | 0.00 | ||
| 20260903054145 | 57 | 0 | 0.0 | 0.0 | 0.00 | 0.00 | 0.00 | ||
| 20260903053631 | 58 | 202 | 0.0 | 0.0 | 0.00 | 0.00 | 0.00 | ||
| 20260903052606 | 58 | 180 | 0.0 | 0.0 | 0.00 | 0.00 | 0.00 | ||
| 20260903051542 | 58 | 138 | 0.0 | 0.0 | 0.00 | 0.00 | 0.00 | ||
| 20260903051027 | 58 | 337 | 0.0 | 0.0 | 0.00 | 0.00 | 0.00 | ||
| 20260903050514 | 58 | 67 | 0.0 | 0.0 | 0.00 | 0.00 | 0.00 | ||
| 20260903044936 | 59 | 337 | 0.0 | 0.0 | 0.00 | 0.00 | 0.00 | ||
| 20260903044423 | 59 | 337 | 0.0 | 0.0 | 0.00 | 0.00 | 0.00 | ||
| 20260903043911 | 59 | 337 | 0.0 | 0.0 | 0.00 | 0.00 | 0.00 | ||
| 20260903043357 | 59 | 337 | 0.0 | 0.0 | 0.00 | 0.00 | 0.00 | ||
| 20260903042845 | 59 | 340 | 0.0 | 0.0 | 0.00 | 0.00 | 0.00 | ||
| 20260903042332 | 59 | 90 | 0.0 | 0.0 | 0.00 | 0.00 | 0.00 | ||
| 20260903041307 | 59 | 337 | 0.0 | 0.0 | 0.00 | 0.00 | 0.00 | ||
| 20260903040753 | 59 | 0 | 0.0 | 0.0 | 0.00 | 0.00 | 0.00 | ||
| 20260903040240 | 59 | 337 | 0.0 | 0.0 | 0.00 | 0.00 | 0.00 | ||
| 20260903035214 | 60 | 337 | 0.0 | 0.0 | 0.00 | 0.00 | 0.00 | ||
| 20260903034701 | 61 | 333 | 0.0 | 0.0 | 0.00 | 0.00 | 0.00 | ||
| 20260903034148 | 61 | 337 | 0.0 | 0.0 | 0.00 | 0.00 | 0.00 | ||
| 20260903033635 | 61 | 157 | 0.0 | 0.0 | 0.00 | 0.00 | 0.00 | ||
| 20260903033122 | 61 | 91 | 0.0 | 0.0 | 0.00 | 0.00 | 0.00 | ||
| 20260903032611 | 60 | 99 | 0.0 | 0.0 | 0.00 | 0.00 | 0.00 | ||
| 20260903032057 | 60 | 348 | 0.0 | 0.0 | 0.00 | 0.00 | 0.00 | ||
| 20260903031031 | 60 | 337 | 0.0 | 0.0 | 0.00 | 0.00 | 0.00 | ||
| 20260903030518 | 60 | 22 | 0.0 | 0.0 | 0.00 | 0.00 | 0.00 | ||
| 20260903030005 | 61 | 123 | 0.0 | 0.0 | 0.00 | 0.00 | 0.00 | ||
| 20260903024940 | 62 | 90 | 0.0 | 0.0 | 0.00 | 0.00 | 0.00 | ||
| 20260903024427 | 63 | 337 | 0.0 | 0.0 | 0.00 | 0.00 | 0.00 | ||
| 20260903023914 | 63 | 337 | 0.0 | 0.0 | 0.00 | 0.00 | 0.00 | ||
| 20260903022849 | 63 | 180 | 0.0 | 0.0 | 0.00 | 0.00 | 0.00 | ||
| 20260903021824 | 63 | 337 | 0.0 | 0.0 | 0.00 | 0.00 | 0.00 | ||
| 20260903021311 | 64 | 337 | 0.0 | 0.0 | 0.00 | 0.00 | 0.00 | ||
| 20260903020245 | 65 | 123 | 0.0 | 0.0 | 0.00 | 0.00 | 0.00 | ||
| 20260903015732 | 65 | 225 | 0.0 | 0.0 | 0.00 | 0.00 | 0.00 | ||
| 20260903015219 | 65 | 315 | 0.0 | 0.0 | 0.00 | 0.00 | 0.00 | ||
| 20260903014707 | 66 | 90 | 0.0 | 0.0 | 0.00 | 0.00 | 0.00 | ||
| 20260903013641 | 67 | 285 | 0.0 | 0.0 | 0.00 | 0.00 | 0.00 | ||
| 20260903013129 | 67 | 157 | 0.0 | 0.0 | 0.00 | 0.00 | 0.00 | ||
| 20260903012616 | 67 | 337 | 0.0 | 0.0 | 0.00 | 0.00 | 0.00 | ||
| 20260903012101 | 67 | 131 | 0.0 | 0.0 | 0.00 | 0.00 | 0.00 | ||
| 20260903011550 | 67 | 120 | 0.0 | 0.0 | 0.00 | 0.00 | 0.00 |